Current weather by "City, St" or "zip code"  
 
Advertise Here

Current Conditions: Rickenbacker Air National Guard Base, OH

Partly Cloudy


59.0 F

Last Updated on May 12 2021, 1:55 pm EDT
Humidity: 39%
Wind Speed: NE 12.7 G 18.4 mph
Barometer 30.35 in
Dewpoint: 34.3 F
Visibility: 10.00 mi
Precip: --
Heat Index: NA
Wind Chill: 57 F
Current conditions at:

Rickenbacker Air National Guard Base, OH (KLCK)

Lat: 39.81667 Lon: 82.93333

Local Radar Image active severe weather and emergency alerts image image weather storm and storm spotter reports image weather observation monitoring service image
Local
Radar
Active
Alerts
Storm Reports Obs
Monitoring

Sign-up For Email & Text Message Weather Alert Notification Services


Advertise Here

Observation History for Rickenbacker Air National Guard Base, OH


Time Wind
(mph)
Vis
(mi)
Weather Precip (in) Temperature (F) Relative
Humidity
Wind
Chill
(F)
Heat
Index
(F)
Pressure
Air Dwpt altimeter
(in)
sea level
(mb)
Rmks
1:55 pm EDT NE 12.7 G 18.4 10.00 Partly Cloudy -- 59.0 34.3 39% 57 NA 30.35 M
12:55 pm EDT N 3.5 G 20.7 10.00 Partly Cloudy -- 58.0 33.6 41% NA NA 30.36 M
11:55 am EDT N 9.2 10.00 Fair -- 57.0 36.1 46% 55 NA 30.38 M
10:55 am EDT N 6.9 G 16.1 10.00 Fair -- 54.0 33.6 46% 52 NA 30.39 M
9:55 am EDT N 8.1 10.00 Fair -- 52.0 34.0 51% 49 NA 30.40 M
8:55 am EDT N 4.6 10.00 Fair -- 46.0 35.2 66% 44 NA 30.39 M
7:55 am EDT N 3.5 10.00 Fair -- 42.0 35.6 79% NA NA 30.39 M
6:55 am EDT N 0.0 10.00 Fair -- 36.0 33.8 91% NA NA 30.38 M
5:55 am EDT N 3.5 10.00 Fair -- 37.0 32.0 81% NA NA 30.35 M
4:55 am EDT N 3.5 10.00 Fair -- 40.0 31.6 73% NA NA 30.33 M
3:55 am EDT N 0.0 10.00 Fair -- 39.0 32.0 75% NA NA 30.32 M
2:55 am EDT N 3.5 10.00 Fair -- 39.0 32.5 78% NA NA 30.32 M
1:55 am EDT N 0.0 10.00 Fair -- 43.0 32.2 67% NA NA 30.33 M
12:55 am EDT N 0.0 10.00 Fair -- 44.0 31.3 62% NA NA 30.33 M
11:55 pm EDT NW 3.5 10.00 Fair -- 43.0 33.3 69% NA NA 30.33 M
10:55 pm EDT NW 3.5 10.00 Fair -- 45.0 32.0 61% NA NA 30.33 M
9:55 pm EDT N 0.0 10.00 Fair -- 46.0 29.5 52% NA NA 30.31 M
8:55 pm EDT NW 6.9 10.00 Fair -- 48.0 28.8 48% 45 NA 30.28 M
7:55 pm EDT N 10.4 10.00 Fair -- 51.0 28.4 42% 47 NA 30.26 M
6:55 pm EDT N 10.4 10.00 Mostly Cloudy -- 52.0 28.8 41% 48 NA 30.25 M
5:55 pm EDT NW 12.7 10.00 Fair -- 53.0 28.0 38% 49 NA 30.24 M
4:55 pm EDT N 13.8 10.00 Mostly Cloudy -- 55.0 29.8 38% 51 NA 30.22 M
3:55 pm EDT N 12.7 10.00 Mostly Cloudy -- 53.0 29.3 41% 49 NA 30.24 M
3:00 pm EDT NW 12.7 G 18.4 10.00 Partly Cloudy -- 55.0 30.2 39% 52 NA 30.24 M

Regional Weather Observation


Columbus, Bolton Field Airport, OH (KTZR)

Partly Cloudy
59.0 F

John Glenn Columbus International Airport, OH (KCMH)

Partly Cloudy
62.0 F

Delaware Municipal Airport, OH (KDLZ)

Mostly Cloudy
57.0 F

London Madison County Airport, OH (KUYF)

Partly Cloudy
59.0 F

Marysville Union County Airport, OH (KMRT)

Mostly Cloudy
57.0 F

Rickenbacker Air National Guard Base, OH (KLCK)

Partly Cloudy
59.0 F
Advertise Here

Advertise Here